Location: Escondida
(34.1015°N, 106.8964°W)
Time: 03:19:08
(UTC+00:00)

NOSS 2-1 (D) - Pass Details

Date: 11 December 2025
Orbit: 374 x 1678 km, 63.3° (Epoch: 12 January)

Event Time Altitude Azimuth Distance (km) Brightness Sun altitude
Exits shadow 12:38:03 33° 293° (WNW) 1,074 4.2 -17.2°
Maximum altitude 12:39:40 48° 240° (WSW) 895 4.1 -16.9°
Drops below altitude 10° 12:45:09 10° 168° (SSE) 2,551 7.1 -15.8°
Sets 12:48:13 0° 163° (SSE) 3,729 8.1 -15.2°
